Wind_Speed
12 13 13 14 14 15 15 15 16 15 16 16 17 17 18 19 20 21 22 23 23 23 23 23 20 15 11 6 6 8 9 10 8 7 10 12 12 12 13 14 14 13 12 10 8 5 4 3 4 5 5 5 4 4 4 5 6 3 3 4 2 1 1 2 5 5 4 3 2 1 4 8 10 15 18 14 17 24 24 22 23 21 21 21 20 17 14 12
12 13 13 14 14 15 15 15 16 16 16 16 16 16 17 18 19 20 20 21 22 22 22 21 19 14 11 6 4 6 8 9 9 9 11 11 12 12 14 14 14 14 13 11 9 7 6 5 5 6 7 5 3 3 3 4 6 4 3 4 1 3 1 2 6 5 4 5 3 3 5 6 9 14 14 7 11 21 21 17 20 23 22 20 18 15 12 10
12 13 14 14 14 15 15 15 16 16 16 16 16 16 16 17 17 18 18 19 20 21 21 20 19 13 10 6 2 3 5 7 7 8 9 10 11 12 13 13 13 13 13 12 11 10 7 8 8 7 7 6 3 3 3 4 4 2 3 3 4 5 2 1 6 7 5 7 6 5 5 4 6 11 12 12 11 11 13 15 16 20 22 19 17 14 12 9
12 13 14 14 15 15 15 15 16 16 16 16 16 16 16 16 16 17 17 18 18 19 20 19 18 13 9 6 3 1 2 3 3 5 7 8 9 10 11 12 12 12 13 12 11 10 9 10 9 5 6 5 4 2 3 4 4 2 2 2 5 5 3 3 8 8 6 7 7 7 6 6 6 9 18 23 12 2 12 21 18 21 26 22 18 16 12 10
12 12 13 14 14 15 15 15 15 15 16 15 15 15 15 15 15 16 16 17 17 17 18 18 17 13 8 5 3 2 2 1 0 2 4 5 7 8 10 10 11 11 11 11 10 9 9 9 8 5 5 4 4 3 2 4 4 3 1 3 3 4 4 6 8 7 7 8 7 6 5 4 5 10 21 23 8 7 18 21 20 25 27 23 20 16 13 11
11 12 13 14 14 15 15 15 15 15 15 15 15 15 15 15 15 15 15 16 16 15 16 16 16 13 7 3 3 3 2 1 2 2 4 4 5 6 8 8 9 9 9 10 9 9 9 10 9 5 4 4 3 1 1 3 3 1 3 3 1 3 4 8 8 6 7 7 6 4 3 6 9 8 12 12 6 15 22 21 24 25 24 21 18 16 13 12
12 12 12 13 14 14 15 15 15 15 15 15 15 15 14 14 14 15 15 15 15 14 15 15 15 13 6 2 1 2 2 1 3 3 4 3 4 5 6 7 9 8 8 9 9 11 11 11 11 7 3 3 2 1 1 4 2 2 2 4 1 2 4 6 5 6 6 6 5 2 5 11 12 7 6 8 12 20 23 24 26 24 22 20 17 15 14 13
12 12 13 13 14 14 15 15 15 15 15 15 15 15 15 14 14 15 15 15 14 14 14 13 13 12 7 2 2 2 2 1 2 3 3 2 3 4 5 6 7 7 8 10 10 11 11 10 10 6 2 2 1 1 1 3 3 3 2 3 2 3 2 2 2 3 4 6 5 3 6 9 14 10 8 13 20 25 26 26 25 24 22 19 17 16 14 14
13 13 13 14 14 15 15 15 15 15 15 15 15 15 15 15 14 15 15 15 14 13 13 12 12 12 7 3 3 2 3 3 3 3 3 2 2 3 4 6 6 7 8 9 9 10 11 9 7 6 1 2 1 2 2 1 2 3 3 2 2 4 4 2 1 2 4 4 5 6 6 6 16 12 7 14 24 26 26 26 25 24 21 18 16 15 13 13
13 14 14 15 15 15 16 16 16 16 16 15 15 15 15 15 14 15 14 15 14 12 11 10 11 11 7 3 2 2 3 5 4 4 4 2 1 2 4 5 5 6 8 8 6 8 11 9 7 6 1 1 2 3 0 2 2 3 1 3 5 7 7 6 5 4 6 4 3 6 5 12 20 9 2 15 25 27 27 26 24 21 19 17 15 14 13 12
13 14 15 15 16 17 17 17 17 17 16 16 15 15 15 15 15 15 14 15 13 11 10 9 10 10 7 4 4 3 2 4 5 5 5 3 1 2 3 5 5 5 7 8 4 6 10 10 8 5 1 1 4 4 1 2 2 2 2 5 8 9 7 7 6 6 6 5 3 5 7 13 13 3 8 24 28 27 28 25 22 19 17 16 14 13 12 12
13 14 15 15 16 17 17 18 18 18 18 18 17 16 15 15 15 14 15 15 13 11 9 8 9 9 6 6 6 4 3 3 5 6 6 4 2 2 3 4 6 5 6 7 3 5 8 9 9 5 2 3 3 2 1 1 3 3 1 3 7 9 5 6 5 6 6 4 4 4 3 7 9 6 13 31 32 28 27 25 22 19 17 16 14 13 12 11
14 14 15 15 16 17 18 18 18 19 19 18 18 17 16 16 15 14 14 14 13 12 9 9 10 8 5 5 6 5 5 5 6 7 7 5 3 3 3 4 6 5 5 6 2 4 7 8 8 5 4 3 2 1 2 4 3 3 1 2 2 7 5 5 3 5 5 3 3 2 2 6 8 6 19 34 34 30 27 25 23 20 18 16 14 13 12 10
15 15 15 16 16 17 18 18 19 19 19 19 19 17 17 16 15 14 13 13 14 11 8 9 9 6 5 5 5 6 6 6 7 8 7 6 4 4 4 3 5 5 5 5 2 4 7 7 7 5 3 3 4 4 5 4 1 0 1 2 2 1 4 5 1 5 4 4 4 5 3 7 7 6 25 36 35 32 29 26 25 22 20 18 15 13 12 11
15 15 16 16 16 17 17 18 19 19 20 20 19 19 17 16 16 13 12 13 13 8 8 11 9 6 5 5 6 7 8 8 8 8 7 6 5 4 4 4 5 5 5 3 1 5 7 6 6 4 3 3 4 4 4 4 3 2 2 3 3 2 5 8 1 8 7 4 4 6 3 7 6 8 26 33 33 31 28 26 26 24 22 19 16 14 14 12
16 16 16 16 17 17 17 18 19 20 20 20 20 19 17 17 16 11 11 13 9 7 10 10 7 6 5 4 6 7 8 8 8 8 8 7 6 4 4 5 5 4 5 2 1 4 5 4 5 4 3 3 2 3 4 4 4 3 2 2 3 3 3 6 3 6 7 3 2 5 4 5 4 11 24 28 29 28 26 26 26 25 23 20 17 15 15 13
16 17 16 16 17 17 17 18 18 20 20 21 21 19 18 17 12 10 11 9 6 10 12 8 6 6 7 6 6 8 8 8 7 6 7 6 6 4 4 5 4 3 4 1 2 3 3 2 4 2 3 4 2 4 4 4 4 4 3 1 4 4 3 3 5 4 4 3 4 4 5 7 4 12 24 27 28 26 25 26 26 26 24 21 18 15 14 13
17 17 17 17 16 16 17 17 18 20 20 21 21 21 19 13 10 12 8 4 7 12 8 5 4 3 6 7 6 6 6 6 6 6 7 6 6 4 4 4 3 2 3 1 2 3 2 1 2 1 3 4 3 5 1 3 3 4 4 3 4 3 4 5 5 3 3 3 5 4 6 10 6 9 21 26 27 26 24 26 26 26 26 23 20 16 13 11
18 17 17 17 16 16 16 16 17 18 20 20 19 20 15 10 11 7 4 4 11 8 3 5 5 3 6 8 7 7 8 9 9 10 9 7 6 5 4 4 2 2 1 1 2 2 1 2 3 2 2 2 2 4 5 7 7 6 5 4 4 5 6 6 5 5 4 4 7 8 9 10 6 8 16 23 27 24 22 23 24 25 26 24 21 17 14 11
20 18 18 17 16 16 15 16 16 17 19 19 20 18 11 9 9 1 4 10 10 7 7 10 12 13 13 12 11 11 11 10 10 11 10 8 6 5 5 4 2 2 1 0 3 2 2 3 1 4 5 6 6 6 6 5 6 4 3 4 6 5 7 6 4 5 4 3 8 8 9 10 8 8 14 23 24 19 19 22 23 25 26 26 22 18 16 12
21 20 18 17 16 15 15 15 15 15 17 17 18 14 8 8 5 3 10 11 7 10 16 18 18 19 17 15 14 10 8 6 7 10 10 8 7 5 5 3 2 1 1 0 2 0 3 2 4 8 8 7 6 5 3 2 3 3 3 4 6 5 8 8 5 4 2 3 6 5 6 10 9 8 11 18 17 17 24 25 25 28 27 26 24 19 17 14
22 20 19 17 16 15 14 14 13 13 14 14 13 10 8 8 5 6 9 9 12 16 16 16 16 18 17 15 14 11 9 6 6 10 10 8 8 6 5 3 3 2 2 2 1 3 4 4 9 9 5 5 2 1 2 3 3 2 1 1 5 4 5 8 5 2 1 2 5 5 5 8 9 9 9 16 18 21 30 31 30 33 30 28 26 21 19 16
22 21 19 18 16 15 14 13 13 11 11 10 9 8 7 8 8 10 9 7 13 13 11 12 12 13 12 10 9 9 11 8 6 10 10 8 8 6 5 5 4 2 1 2 4 1 2 6 8 4 6 6 1 1 3 1 2 3 2 1 5 4 2 5 5 4 3 2 4 7 7 6 7 10 9 16 22 20 25 27 28 32 32 29 27 22 19 18
23 21 20 19 16 15 13 13 12 10 9 7 6 6 6 7 8 11 9 5 7 7 7 9 9 9 8 5 5 7 9 8 7 9 10 8 8 6 5 5 4 2 3 4 6 4 6 7 3 6 6 5 2 0 4 3 4 4 5 5 7 6 5 7 4 4 5 4 3 6 8 6 7 13 11 7 12 13 18 22 24 29 31 26 24 22 18 16
24 22 20 19 17 14 13 13 11 9 7 5 5 5 5 7 7 9 7 3 4 5 4 6 6 7 7 5 4 5 5 7 8 9 10 8 8 6 4 5 4 2 6 4 4 3 8 5 4 7 3 4 4 3 4 7 3 5 5 9 10 9 8 6 5 5 4 4 4 3 5 6 2 8 9 2 4 9 13 18 22 27 29 26 26 24 18 15
25 23 20 19 17 14 13 12 10 8 6 5 6 4 5 6 6 7 5 3 3 4 3 5 4 4 7 7 6 5 1 5 8 10 10 8 9 7 3 3 3 2 5 4 1 2 3 1 4 6 4 4 3 5 5 7 3 3 5 6 7 6 5 4 4 3 2 3 4 2 1 8 2 3 8 6 7 9 9 12 19 26 29 29 29 25 21 17
26 23 20 19 17 14 13 10 9 8 7 6 5 4 5 4 4 5 4 4 3 4 4 4 5 5 6 7 9 7 1 2 6 8 11 9 8 8 4 3 2 2 4 3 2 3 2 1 3 4 5 4 3 5 5 7 6 3 4 3 4 3 3 3 0 2 3 2 6 2 4 7 7 6 8 8 10 9 9 11 15 23 30 30 30 27 23 19
26 23 20 19 18 16 14 12 11 9 8 7 5 5 5 3 3 3 3 2 3 3 3 3 5 6 7 7 10 8 2 2 4 5 10 10 8 6 4 5 6 5 4 5 3 5 3 4 5 5 4 3 6 6 7 9 4 5 5 3 2 3 4 2 2 4 2 3 7 5 6 4 8 5 2 5 9 10 13 15 15 22 29 30 31 29 25 20
25 24 21 19 19 17 14 13 12 10 9 7 5 5 4 2 2 3 3 1 2 2 2 3 5 5 6 5 8 9 4 2 2 6 10 8 6 5 2 5 6 4 3 4 5 6 2 4 7 7 5 5 6 4 6 9 4 3 3 2 2 1 1 1 2 2 2 2 9 7 7 4 7 4 1 2 6 12 14 14 15 21 27 29 32 31 26 21
25 24 22 20 19 17 15 14 13 10 9 8 7 6 3 1 2 4 1 4 2 1 2 4 4 4 6 4 3 5 4 4 3 7 7 4 5 3 2 3 3 4 1 3 2 5 2 1 2 4 4 5 4 2 2 4 3 3 4 3 4 4 3 2 1 2 3 3 10 8 11 8 6 3 6 5 6 11 12 11 13 18 24 29 33 33 27 22
24 24 21 19 19 17 15 13 12 11 10 9 8 7 3 1 4 3 5 3 1 1 2 2 2 3 6 4 2 2 2 3 5 7 4 2 3 1 2 2 1 2 3 4 3 5 4 0 2 2 3 5 6 4 3 3 3 4 4 3 4 5 3 4 4 3 1 5 7 5 8 8 7 6 6 8 8 7 10 12 15 18 24 32 35 33 28 23
23 22 19 19 19 17 15 13 12 11 11 10 9 7 4 1 0 4 4 2 1 3 3 2 2 3 4 2 1 4 2 2 4 6 4 3 3 3 3 4 2 2 5 2 2 5 2 4 3 1 2 5 6 4 2 5 5 4 3 3 3 4 3 3 3 0 3 7 4 1 4 4 10 10 8 13 13 8 10 15 19 23 27 33 35 33 28 24
22 21 20 20 19 17 17 14 12 13 12 12 10 5 5 2 5 6 4 2 2 3 2 2 2 3 5 2 3 3 2 3 4 4 3 3 1 3 4 4 6 3 4 3 1 3 3 5 2 1 2 7 9 5 2 2 1 4 3 3 2 1 2 4 4 3 5 6 3 2 2 3 9 8 9 14 13 10 16 21 24 28 33 36 36 33 27 24
21 21 20 20 19 19 18 15 14 14 13 14 10 4 4 4 6 4 5 6 3 1 1 3 3 3 4 3 4 4 2 3 3 4 1 1 0 3 4 4 5 5 2 2 1 3 2 5 3 5 2 7 9 5 5 5 4 4 4 4 4 3 2 4 3 4 7 6 3 0 1 4 5 3 5 9 8 10 19 21 21 26 33 35 34 31 27 25
19 20 20 21 21 20 17 16 16 15 15 14 8 4 5 6 4 3 5 5 2 0 1 2 5 4 2 3 3 3 4 4 1 3 2 3 3 4 3 5 6 5 4 2 2 3 4 6 6 1 1 7 6 3 5 6 3 2 3 4 2 4 4 3 3 4 3 5 4 3 4 6 5 3 2 1 2 5 11 14 19 24 30 32 31 30 28 26
20 20 20 22 23 19 18 18 16 16 17 12 6 6 8 5 4 5 4 4 4 4 4 2 3 3 4 3 3 3 3 2 0 2 2 3 3 5 5 5 7 8 7 5 3 2 2 5 3 2 1 3 3 2 3 2 2 2 2 3 4 4 5 2 3 1 2 3 5 3 6 6 2 4 1 4 2 3 5 10 18 24 28 30 30 30 29 25
22 21 21 24 22 17 18 19 16 17 17 11 6 8 6 5 7 7 4 4 4 5 7 2 2 5 5 3 4 5 2 1 1 2 3 3 3 6 5 4 7 12 12 7 3 3 2 4 3 2 2 2 0 1 2 2 3 4 3 5 3 2 3 2 2 2 1 4 5 2 8 10 3 3 2 3 4 6 6 7 12 18 23 25 27 30 29 25
19 18 22 26 23 18 19 18 16 17 14 8 8 8 4 6 9 8 6 5 3 4 6 5 5 5 6 5 4 4 4 3 3 3 3 3 4 5 6 4 7 11 12 8 2 2 2 3 5 1 1 2 2 2 1 2 2 5 3 3 2 2 2 2 1 2 1 4 7 3 6 11 7 4 4 6 10 12 9 8 9 13 19 22 26 30 28 24
14 13 18 23 21 21 20 17 18 17 11 7 8 7 4 5 10 15 13 6 2 3 4 6 6 4 5 6 4 3 5 6 5 4 3 3 4 6 7 5 5 6 8 10 5 2 3 1 4 1 2 2 2 1 4 2 1 2 1 2 1 2 3 2 2 2 2 4 8 5 6 8 6 6 9 12 15 15 12 11 11 15 20 24 27 30 29 25
16 11 12 14 15 20 22 19 17 15 8 7 8 5 3 4 10 20 23 13 5 5 4 4 5 5 4 5 3 3 5 5 6 5 4 4 4 5 7 6 5 3 3 6 3 1 3 2 3 2 3 1 3 4 7 8 5 3 2 2 2 2 1 2 2 2 3 4 6 5 9 10 3 4 8 13 15 16 15 15 14 16 22 26 29 32 30 26
19 9 8 11 13 19 25 19 12 10 5 6 6 4 4 6 6 13 23 23 14 9 7 5 6 6 5 4 4 4 5 4 6 6 4 5 6 5 9 13 10 8 4 4 2 3 3 3 4 1 1 4 5 5 6 8 8 7 6 7 7 6 2 3 5 3 3 5 5 2 11 13 3 3 5 9 11 12 15 17 14 17 25 29 31 32 29 25
20 8 6 12 16 22 26 14 7 7 5 6 7 6 7 7 5 7 15 20 16 11 7 5 6 7 6 6 7 5 5 4 5 6 5 8 9 6 10 19 19 17 10 3 2 5 3 2 3 4 5 5 4 2 1 2 3 3 5 6 6 6 6 6 9 3 2 5 3 1 11 14 3 4 4 6 9 12 19 21 16 18 27 31 31 31 27 22
21 12 8 13 20 27 22 7 5 7 5 7 9 11 11 7 4 6 9 12 11 7 7 6 5 8 8 6 6 6 6 6 6 8 7 7 9 9 12 21 22 15 8 2 1 3 3 2 3 5 5 1 2 4 4 4 3 2 5 5 7 9 10 9 6 1 2 6 3 2 12 13 3 2 2 3 5 11 21 26 21 20 27 31 31 29 25 20
21 16 13 14 21 28 19 5 6 9 7 7 8 12 14 11 9 10 8 10 11 6 6 6 5 9 9 5 6 7 6 7 7 9 9 4 5 10 13 21 22 13 7 6 6 8 5 2 3 2 6 4 3 3 3 3 0 4 5 5 9 13 9 3 1 1 4 7 7 5 14 11 2 2 2 2 4 8 13 21 23 23 26 29 30 28 24 19
16 13 17 21 28 30 21 9 5 6 9 9 8 10 11 11 16 21 16 13 13 8 5 7 8 10 7 4 5 7 8 10 9 6 7 5 3 4 9 18 21 14 9 8 12 14 8 3 5 5 5 7 8 5 3 3 3 3 4 7 11 14 13 6 2 5 9 7 8 9 15 13 5 1 1 3 6 7 9 15 21 25 28 30 31 28 23 19
14 8 10 17 29 34 29 20 10 3 5 8 6 9 15 13 13 19 20 15 15 13 8 7 7 7 5 6 7 9 11 13 11 5 3 5 4 2 4 13 16 13 8 7 14 13 4 2 7 10 10 12 14 11 3 5 3 5 6 11 13 14 15 10 6 10 10 4 8 17 18 19 18 8 5 6 7 9 10 12 16 22 27 31 32 28 23 20
14 8 9 12 16 22 25 23 16 6 6 11 7 6 15 16 10 11 16 15 16 18 12 6 6 8 8 10 10 10 13 14 12 9 5 4 3 3 2 6 9 12 8 7 13 10 3 5 11 12 15 18 19 16 5 4 8 12 12 13 13 13 14 14 15 17 8 2 13 24 19 21 26 16 9 10 11 10 9 12 18 24 29 32 31 27 23 19
17 12 21 23 13 8 14 22 22 15 13 15 10 6 10 14 12 11 12 11 14 19 13 7 13 17 14 14 11 10 14 13 10 9 8 7 6 2 1 2 5 10 7 5 9 7 3 8 11 9 15 21 20 17 9 7 11 13 18 20 13 12 17 21 23 21 13 10 19 26 22 23 25 18 12 12 12 13 15 20 26 28 30 31 29 27 24 19
24 12 18 28 19 10 16 27 27 21 19 16 10 12 17 17 16 12 8 6 9 17 18 12 17 21 17 16 13 12 15 13 10 11 11 12 12 7 3 3 4 7 7 5 5 4 4 8 8 8 13 18 18 15 10 12 13 14 24 27 15 14 20 22 22 23 21 21 25 28 28 29 26 19 14 12 17 21 22 24 26 25 28 31 30 29 25 19
34 20 15 21 19 15 15 19 18 15 18 17 13 18 19 17 18 14 9 11 11 12 18 21 22 19 18 18 18 19 23 17 13 15 13 12 11 7 5 5 4 4 5 4 2 3 5 5 3 5 7 15 17 12 8 11 12 16 29 29 17 15 19 20 21 22 20 22 28 29 26 26 26 21 14 12 17 20 17 18 23 26 31 33 31 29 25 20
48 35 24 16 11 13 12 11 12 10 11 14 17 19 15 16 22 16 11 20 23 14 15 24 25 15 14 20 24 26 27 21 19 22 19 17 15 12 10 8 9 7 5 6 4 3 5 3 1 4 5 12 9 2 2 3 5 15 31 31 19 17 19 19 19 20 20 22 26 22 18 21 21 12 6 8 13 13 12 16 23 27 32 34 32 29 25 20
47 36 34 24 11 13 14 9 10 11 12 15 19 19 16 17 19 14 9 19 28 24 20 23 22 13 11 20 29 35 37 31 28 26 20 18 19 15 11 11 14 13 8 7 5 4 6 5 2 4 6 10 2 5 5 2 3 13 21 19 17 20 22 20 17 21 24 21 17 14 16 21 16 4 3 7 9 10 13 20 26 28 31 33 32 30 24 18
Wind_Direction
3 6 7 8 9 10 11 12 13 13 12 12 13 14 13 12 11 14 15 15 17 21 26 26 26 31 41 59 77 69 62 64 75 93 92 76 64 53 44 39 35 33 28 26 32 38 44 43 30 21 8 10 18 350 2 19 21 48 114 75 72 146 118 174 177 180 155 169 240 211 170 141 118 118 117 100 97 97 90 93 101 109 113 117 123 129 132 130
357 359 1 3 6 6 7 8 10 11 10 10 9 9 8 8 6 7 10 11 11 14 20 24 25 28 37 47 86 81 73 76 82 89 83 71 61 52 46 43 39 35 30 26 30 37 50 44 24 20 17 25 18 346 359 14 34 61 106 74 192 197 160 181 157 161 147 149 188 181 156 137 135 142 142 121 100 103 96 95 108 113 115 122 130 133 138 145
354 354 356 359 1 3 4 5 7 9 9 9 7 6 5 4 3 2 2 5 7 8 12 19 22 26 36 39 78 93 80 78 76 77 78 71 60 52 47 44 41 37 31 27 26 24 27 18 7 11 20 28 15 339 357 11 28 53 80 63 235 202 126 154 134 129 153 161 156 157 154 83 111 153 150 137 135 120 123 138 131 127 133 135 137 140 141 145
351 351 352 354 357 359 1 2 3 5 7 7 5 4 3 1 360 358 356 358 1 2 5 12 18 22 33 39 55 88 74 73 63 70 78 71 59 51 47 43 41 38 31 27 25 20 17 9 2 12 27 24 18 358 356 14 10 359 101 144 217 182 134 154 137 127 146 154 146 151 139 64 76 146 151 139 128 169 168 164 161 154 150 145 143 142 139 135
346 347 347 349 352 354 356 358 359 0 2 3 3 2 2 359 357 355 352 352 354 357 359 4 11 16 25 36 43 26 27 49 298 92 92 75 61 51 44 41 39 38 32 29 26 20 16 8 4 26 42 26 24 23 357 20 20 350 269 226 195 152 145 163 145 131 147 141 128 130 105 98 110 124 152 154 143 190 182 173 168 161 154 151 148 142 138 130
338 340 342 344 346 348 350 353 355 355 355 357 357 358 359 356 354 351 348 346 347 350 353 358 4 9 15 21 29 19 27 115 192 144 112 86 63 50 40 37 37 38 30 27 31 33 29 15 14 32 48 43 33 36 22 359 358 333 293 285 173 117 129 163 158 138 153 136 115 121 95 139 135 113 160 173 169 172 173 168 159 154 152 150 146 140 133 118
331 335 337 338 340 342 344 347 349 350 350 350 351 351 353 352 352 349 344 343 341 342 347 352 358 360 1 331 321 351 4 120 170 149 131 111 67 51 38 30 33 37 25 26 38 42 35 20 22 36 56 64 50 47 39 315 302 151 276 300 314 15 99 149 156 137 144 115 96 113 130 150 148 136 160 147 143 157 158 156 153 148 147 146 139 132 122 108
326 330 333 335 337 338 339 341 342 344 345 345 345 345 346 347 348 347 342 339 335 336 339 346 352 351 350 310 258 254 275 222 174 164 152 116 68 50 36 25 26 30 21 25 38 42 34 22 20 26 61 119 87 351 12 308 301 143 221 296 322 335 27 117 123 125 131 103 89 87 115 166 177 160 137 133 142 150 151 151 150 146 144 140 135 126 116 107
323 326 330 332 334 336 338 338 339 340 340 341 341 339 340 342 342 343 339 334 331 330 332 339 346 344 339 299 247 247 242 213 196 200 188 133 65 46 32 19 18 24 22 24 36 39 32 27 15 6 9 177 302 336 68 45 302 184 188 316 326 319 319 263 229 144 154 135 100 82 73 150 169 152 116 145 150 151 153 151 149 147 144 139 134 124 115 107
317 321 326 329 332 335 335 337 337 337 338 337 338 337 336 337 337 339 334 327 325 324 326 332 341 339 327 289 230 223 231 210 211 222 203 176 40 29 23 11 13 21 20 19 35 40 30 26 12 358 349 210 314 309 148 132 240 214 225 322 301 299 289 249 232 188 178 197 122 101 123 155 159 152 150 168 160 156 155 151 152 153 149 144 137 127 116 105
312 317 321 325 328 331 332 334 334 335 336 335 337 336 334 334 333 334 329 321 319 320 321 324 335 331 309 274 223 206 227 216 214 214 201 202 272 354 359 359 9 14 14 14 31 41 26 18 8 354 328 307 313 306 232 167 217 238 315 317 306 315 289 230 209 196 183 213 205 122 140 163 168 207 196 175 166 163 160 154 158 160 153 147 141 131 118 106
305 311 316 321 324 327 329 330 332 334 334 335 335 335 333 331 330 329 325 317 314 317 315 316 330 325 296 262 245 242 247 228 212 208 207 219 269 320 327 346 1 4 5 6 26 39 18 4 2 353 297 288 307 346 47 303 290 268 358 308 308 348 323 230 198 193 182 213 225 113 96 186 209 253 184 172 167 166 164 159 162 162 156 152 146 138 122 110
301 307 312 317 320 323 325 328 330 331 332 334 333 334 333 330 329 326 321 313 310 313 308 311 322 313 283 259 255 253 248 234 216 214 218 232 265 295 303 331 351 351 353 357 30 36 8 354 355 342 305 299 295 328 316 312 300 272 55 117 321 4 330 253 188 188 190 214 204 129 306 241 236 229 171 169 169 167 165 163 164 162 159 155 151 145 129 115
297 303 308 312 317 319 322 325 326 328 331 332 332 334 333 330 328 323 316 308 306 310 302 308 314 292 265 258 260 255 250 239 224 225 230 246 266 284 288 309 338 331 336 351 44 25 1 355 357 353 331 312 292 295 318 344 43 230 42 63 35 28 285 290 154 160 188 235 167 129 259 255 269 214 168 170 173 169 166 165 166 164 160 156 151 146 137 123
295 300 305 309 314 317 319 322 324 326 328 330 331 333 334 330 328 321 309 303 304 309 305 305 300 272 261 255 258 258 250 237 228 232 240 257 266 270 278 300 321 312 322 336 87 18 2 356 3 12 354 322 323 329 340 356 11 35 39 320 337 171 265 307 264 170 190 242 155 133 251 261 267 194 171 173 175 173 169 168 169 167 162 158 152 147 144 136
292 297 301 306 311 313 316 319 321 324 327 330 330 333 337 330 327 321 306 302 295 304 311 302 281 263 266 258 251 248 240 230 225 234 243 254 253 250 269 295 305 292 316 320 165 5 360 10 19 30 22 2 40 57 34 6 345 2 57 258 260 196 271 316 305 206 203 229 179 181 235 265 256 181 176 178 179 177 172 171 173 170 166 161 155 151 150 146
288 294 298 303 307 309 313 317 320 322 325 329 330 334 337 330 327 322 306 288 278 309 310 281 261 274 266 252 245 239 235 226 223 232 242 246 237 239 260 273 286 287 314 281 176 1 358 42 30 35 39 40 77 73 35 350 320 325 3 282 245 215 232 280 308 282 191 195 235 223 229 251 254 177 181 185 185 182 176 177 177 173 170 165 160 155 154 154
284 289 294 298 302 306 311 314 319 320 323 328 331 335 336 332 330 319 294 253 297 314 304 240 235 300 263 233 217 218 220 219 232 243 245 241 226 232 246 249 264 284 320 204 199 349 344 21 55 72 26 18 33 75 77 262 245 271 284 280 280 264 235 236 277 277 163 205 241 235 249 253 260 182 187 191 189 188 183 179 178 175 172 170 169 163 158 157
281 285 289 294 298 302 306 311 316 318 321 326 331 335 337 337 336 317 216 283 312 300 258 220 212 246 265 247 229 234 247 249 256 257 247 235 219 219 221 219 219 210 180 132 283 335 24 19 43 28 341 276 238 131 175 215 204 235 248 233 256 271 262 232 243 251 186 218 246 230 243 252 243 190 193 195 192 192 186 180 178 177 175 176 176 173 170 165
278 281 284 289 293 298 302 307 312 317 320 326 335 344 350 348 351 315 244 309 305 255 259 266 256 259 262 264 261 259 264 260 251 244 233 220 209 200 191 201 193 147 98 129 274 302 71 36 338 254 247 222 215 187 189 204 191 218 236 235 247 250 272 261 253 268 176 193 255 234 237 255 244 210 200 195 191 189 184 182 184 181 179 181 180 179 178 173
274 277 280 285 288 293 297 300 307 315 319 329 341 354 9 7 11 308 308 315 297 274 277 274 270 266 261 265 268 262 257 250 233 221 213 206 198 187 188 188 106 127 331 48 218 303 68 24 261 242 230 203 198 194 201 217 194 219 222 262 277 241 261 274 267 278 161 179 267 260 245 256 251 233 209 191 185 193 191 187 189 186 183 185 184 182 181 178
269 272 276 280 283 287 290 295 301 309 318 328 341 355 7 4 357 329 325 305 293 291 279 269 264 261 263 266 265 252 237 237 226 207 199 199 195 194 194 155 112 180 310 52 103 2 14 276 259 249 205 159 137 145 189 237 224 231 195 278 289 258 272 292 299 326 61 191 273 292 265 256 258 250 219 196 197 204 200 196 192 186 183 185 185 183 183 182
263 267 272 274 277 281 283 289 293 302 313 319 333 350 355 351 343 339 334 294 292 292 273 264 256 253 258 259 254 233 218 219 214 200 194 195 194 192 179 147 134 166 2 101 151 58 321 254 247 217 147 140 5 30 140 253 275 230 191 211 270 275 292 290 311 343 327 256 257 280 271 257 258 258 240 210 207 208 206 204 197 190 188 188 188 189 188 186
260 262 267 269 271 275 276 281 286 294 302 307 325 335 340 340 339 341 334 293 285 287 261 245 239 241 238 232 228 208 205 211 208 195 189 188 185 183 179 154 123 147 211 171 143 171 252 257 199 121 120 148 184 142 139 181 278 260 212 209 248 266 244 243 293 339 319 301 278 291 284 261 228 242 251 213 202 205 198 197 196 195 194 193 193 193 192 193
257 258 262 265 266 268 270 275 279 280 281 290 302 309 332 331 337 347 342 322 293 283 230 214 230 232 213 204 202 190 199 217 213 197 192 196 188 168 162 163 141 192 215 175 130 212 262 266 149 125 110 142 172 232 186 176 240 297 239 216 233 249 251 261 333 359 341 321 316 2 302 277 226 236 251 187 177 203 190 189 194 195 194 195 195 192 192 198
253 254 257 260 260 260 263 269 268 261 260 268 276 293 322 319 339 350 357 42 312 263 177 191 214 202 199 204 193 173 223 243 209 197 193 196 192 171 147 167 157 204 202 166 125 249 263 337 106 132 151 149 179 253 229 169 156 291 256 208 210 221 239 276 351 358 278 269 290 56 262 274 294 229 237 197 194 208 193 196 199 197 196 196 195 192 194 199
251 252 254 256 257 254 254 257 252 247 252 258 262 281 301 310 347 348 11 29 292 223 145 176 189 184 197 202 185 168 224 225 177 192 195 185 184 174 177 196 151 201 183 127 339 268 169 93 53 101 140 163 198 255 230 159 140 242 245 128 128 174 223 243 124 249 243 275 287 217 168 269 276 248 237 190 194 214 206 210 207 202 202 198 195 195 197 201
249 249 249 251 252 249 247 247 247 246 245 248 251 258 280 305 327 355 63 13 272 164 136 177 169 181 194 193 195 194 225 168 148 190 187 177 180 172 197 209 178 194 180 134 253 267 162 171 198 154 136 191 210 230 194 157 160 244 217 125 120 188 211 215 198 252 297 29 291 238 151 256 269 254 279 164 195 226 216 212 211 207 205 198 195 197 199 201
243 244 243 244 248 246 243 242 241 242 237 232 229 237 258 276 315 45 85 242 256 129 145 174 162 191 189 173 208 219 231 214 167 178 174 173 191 181 207 210 169 173 199 163 218 251 208 194 197 158 157 215 218 223 179 163 194 224 158 98 21 68 156 187 199 253 45 65 265 240 157 219 265 231 130 133 214 231 222 215 213 210 206 198 195 196 198 198
239 239 237 238 242 241 239 238 235 235 228 216 217 228 247 236 89 69 177 239 253 139 130 162 183 185 162 152 241 232 212 222 179 160 171 185 199 190 170 186 135 130 245 331 257 254 292 110 172 162 187 193 158 125 132 151 167 124 82 28 355 10 37 44 72 87 68 247 255 231 180 195 270 245 179 185 220 218 210 207 211 211 206 200 197 196 196 196
238 236 233 233 236 234 233 232 228 226 216 206 215 218 203 143 83 119 212 238 294 212 117 170 209 137 146 160 221 206 184 232 185 162 177 185 181 185 130 170 66 71 357 342 301 302 339 85 230 235 192 136 106 89 36 33 80 94 67 39 353 328 10 24 358 53 108 250 261 233 186 189 240 246 205 222 243 218 198 197 201 205 201 199 198 196 196 195
245 237 232 231 230 229 226 223 218 215 208 200 206 202 162 135 181 191 224 327 343 212 168 189 213 159 164 158 218 206 184 232 187 165 176 166 174 198 182 200 196 1 323 288 290 325 305 230 255 342 191 159 119 86 7 359 36 81 84 63 13 329 353 351 298 247 220 246 256 159 158 203 241 248 237 237 244 227 204 204 201 196 193 195 195 193 193 193
255 241 232 230 226 224 220 217 212 204 201 197 193 173 110 139 227 211 219 269 232 214 156 136 138 136 142 143 253 216 165 220 198 173 183 151 186 250 250 228 168 163 261 224 330 325 290 294 281 135 256 190 159 141 199 276 97 140 150 139 140 34 334 289 262 273 277 266 260 119 125 252 260 261 241 240 247 225 212 215 209 196 189 191 191 190 190 192
257 244 235 231 225 221 217 213 208 197 197 195 181 134 118 201 232 217 221 232 233 342 62 113 104 110 135 177 240 204 171 250 190 154 197 104 131 250 257 250 177 139 164 177 230 200 223 302 227 181 216 178 176 179 165 143 142 179 159 136 157 159 217 259 237 258 291 295 276 169 158 227 236 261 247 257 270 223 213 214 202 191 187 186 186 186 189 192
254 247 234 231 226 218 213 212 205 196 198 192 170 149 187 206 220 208 221 227 226 303 10 68 95 116 227 264 283 224 197 253 165 122 184 171 183 205 193 219 201 146 125 170 250 177 187 259 249 243 97 161 177 187 139 112 115 209 123 119 187 179 183 234 213 210 291 311 276 215 223 226 216 253 258 292 298 193 193 185 171 174 178 179 183 186 189 192
245 248 235 233 228 214 210 212 202 201 202 186 172 213 211 204 186 193 201 181 180 160 122 45 94 141 249 273 285 255 185 217 185 126 224 212 204 211 203 218 194 171 165 171 211 193 202 266 274 19 8 159 161 177 143 130 176 169 128 183 225 173 146 212 265 353 62 283 270 214 251 275 293 273 240 102 133 165 160 166 162 167 173 177 184 188 189 192
239 244 239 236 228 211 210 210 199 202 201 183 199 221 209 206 194 191 191 158 161 142 133 169 200 181 216 231 228 230 184 208 198 160 221 243 228 201 205 242 196 186 192 181 202 220 202 272 257 144 202 232 107 66 35 29 131 130 181 219 207 134 109 116 267 325 61 257 269 211 255 271 266 276 298 109 181 201 190 180 167 169 176 182 188 188 190 196
240 241 243 240 228 210 208 207 200 201 194 186 229 236 212 213 204 195 189 160 132 113 142 201 218 184 191 202 218 205 169 190 188 170 196 232 246 189 166 212 204 197 201 179 182 253 142 271 272 149 188 265 17 39 358 348 89 131 210 248 129 172 230 120 162 258 214 262 271 245 272 269 234 222 226 191 200 204 197 186 178 184 188 189 189 188 191 198
232 232 247 247 229 213 207 203 199 197 189 197 226 232 217 215 219 215 210 193 154 147 169 217 223 199 178 179 190 181 181 194 176 176 198 194 232 200 169 191 195 199 196 166 170 229 127 227 276 323 304 304 34 146 194 221 38 86 345 320 74 184 213 178 168 204 184 256 274 285 305 281 226 191 200 200 201 198 188 186 194 199 196 191 188 188 193 198
211 220 247 241 221 212 204 196 195 190 194 219 217 220 223 222 231 227 224 223 212 195 207 217 210 216 203 185 191 178 192 201 172 182 219 197 218 221 198 194 158 157 171 136 148 193 116 200 249 330 329 252 184 203 192 183 175 154 176 224 229 191 182 263 235 168 173 243 265 279 280 268 215 167 195 195 200 198 184 186 200 202 196 191 190 192 195 199
207 225 241 211 203 203 191 185 193 192 206 236 218 216 233 235 239 231 227 227 227 225 218 197 195 207 196 198 220 189 178 196 180 189 226 212 220 232 208 196 164 142 120 81 143 197 160 196 207 190 238 214 217 221 193 187 182 175 184 193 203 196 171 272 255 206 173 229 228 238 270 266 220 155 201 187 196 198 183 189 201 197 193 191 193 196 198 201
206 223 223 192 192 189 180 180 204 197 214 230 217 221 228 233 235 224 224 225 228 236 231 215 207 206 203 210 214 185 166 192 194 198 229 222 213 211 202 194 174 155 149 133 207 196 147 131 194 230 228 214 242 299 58 207 194 197 211 192 188 187 173 215 244 227 163 229 221 192 268 269 232 150 196 192 196 189 185 194 198 192 192 192 193 197 198 201
210 213 206 189 189 183 174 191 223 194 225 231 225 237 233 232 234 215 213 213 216 220 222 228 203 201 221 213 197 193 188 203 200 194 222 237 215 212 200 187 175 157 144 151 216 160 125 126 209 264 288 327 354 356 12 24 63 230 240 190 186 206 201 211 231 137 172 223 183 197 258 266 279 147 188 186 193 183 187 197 196 186 190 192 192 194 196 200
215 217 214 197 187 182 181 209 208 201 229 226 226 241 238 242 240 220 200 197 203 194 200 222 200 206 224 192 181 204 193 206 220 204 212 223 201 216 207 185 178 170 172 192 179 165 173 184 172 256 306 309 324 352 342 332 202 225 235 196 206 220 216 228 35 100 250 223 172 216 257 258 294 13 11 100 160 180 192 198 193 184 186 189 190 192 196 199
208 221 220 204 190 189 202 223 192 195 217 213 228 238 233 245 237 224 217 209 208 195 189 226 213 205 210 155 184 216 200 213 234 219 212 217 212 229 207 192 189 187 198 198 168 163 176 193 167 183 247 258 261 267 238 222 206 208 224 211 215 216 207 209 219 220 241 225 184 225 254 258 269 33 284 225 181 183 192 189 189 189 187 188 189 191 194 196
189 204 210 193 191 200 216 226 216 205 197 195 229 236 223 234 237 221 216 216 218 211 213 236 211 192 197 178 198 225 221 224 231 224 201 201 226 267 201 201 203 201 210 186 163 158 146 225 201 202 218 232 250 256 195 132 184 222 222 212 209 209 206 205 226 233 233 227 235 240 245 258 265 248 213 229 200 188 193 185 189 191 188 188 190 192 194 195
187 204 192 172 186 208 221 221 214 217 191 181 192 227 218 223 235 220 209 208 212 210 221 246 197 191 205 192 198 228 229 227 226 225 220 192 221 276 211 204 209 210 209 176 172 160 100 239 219 214 227 236 248 253 216 154 238 251 253 236 210 197 201 205 222 232 217 156 252 251 244 252 261 252 215 216 209 198 197 191 192 192 188 188 190 191 192 195
202 218 203 190 184 199 211 208 201 204 211 201 205 243 227 214 213 209 202 200 200 200 207 230 214 209 204 189 196 227 230 230 231 224 224 220 222 229 209 225 214 207 191 167 190 164 127 241 226 204 232 244 250 255 248 238 255 263 266 257 226 188 198 212 227 232 220 215 246 257 256 254 260 256 225 211 204 201 204 201 197 193 187 186 187 187 190 195
214 226 208 198 202 208 206 204 196 197 214 212 215 239 233 221 213 203 183 175 201 204 201 213 222 215 203 194 200 221 226 222 219 218 218 222 220 203 199 247 220 199 178 163 206 169 154 246 237 200 235 253 252 253 252 251 260 266 263 259 240 210 214 220 232 236 230 233 246 257 263 263 265 261 247 226 208 206 208 201 193 187 183 184 187 187 190 197
216 216 197 192 212 225 213 204 191 195 214 210 218 234 231 227 222 210 183 182 199 205 201 214 226 211 196 203 208 222 227 214 209 220 209 206 219 205 201 219 171 166 189 171 193 204 194 239 245 177 237 263 258 250 237 241 252 259 262 261 246 232 235 232 236 240 237 240 246 252 260 266 267 264 260 239 209 200 197 190 186 186 186 186 186 188 192 198
220 218 205 190 213 221 205 195 187 198 214 205 218 231 224 224 224 212 202 210 213 206 191 210 225 210 193 211 216 226 230 215 215 227 211 197 206 202 202 199 153 147 193 180 168 202 203 228 45 109 231 261 263 241 198 247 269 263 265 264 247 233 238 233 231 234 231 235 245 251 254 258 264 268 257 219 193 183 185 185 185 189 189 187 186 190 195 198
219 218 212 206 213 208 199 198 186 199 219 211 216 227 223 226 222 202 208 227 225 224 214 210 216 209 200 216 220 226 230 223 225 235 226 211 213 213 211 197 172 167 172 169 180 190 179 195 157 139 228 260 271 98 112 85 302 266 263 257 232 223 231 235 236 237 232 228 237 244 242 248 258 270 224 214 187 183 192 188 187 189 189 188 190 193 195 195
Height
1565 1565 1564 1563 1562 1561 1560 1559 1559 1558 1557 1556 1555 1554 1553 1552 1551 1550 1549 1547 1546 1545 1545 1544 1543 1542 1542 1541 1541 1540 1540 1539 1539 1538 1537 1537 1537 1537 1536 1535 1534 1533 1532 1531 1530 1530 1529 1529 1528 1527 1526 1526 1526 1526 1526 1526 1525 1525 1529 1532 1534 1538 1536 1533 1534 1535 1534 1534 1533 1533 1532 1533 1538 1538 1537 1540 1540 1540 1542 1544 1545 1546 1547 1548 1549 1551 1551 1551
1565 1564 1564 1563 1562 1561 1560 1559 1559 1558 1557 1556 1556 1555 1554 1553 1551 1550 1549 1548 1547 1546 1545 1544 1543 1542 1542 1542 1541 1541 1540 1540 1539 1539 1538 1538 1537 1537 1536 1535 1535 1534 1533 1532 1531 1530 1529 1529 1528 1527 1526 1526 1526 1526 1526 1526 1525 1526 1530 1532 1535 1537 1534 1532 1531 1532 1532 1532 1533 1532 1532 1532 1535 1536 1536 1540 1545 1542 1542 1547 1548 1546 1548 1549 1549 1549 1550 1550
1565 1564 1564 1563 1562 1561 1560 1559 1559 1558 1557 1556 1556 1555 1554 1553 1552 1550 1549 1548 1547 1546 1545 1544 1544 1542 1542 1542 1541 1541 1541 1540 1540 1539 1539 1538 1538 1537 1537 1536 1535 1534 1533 1532 1531 1530 1529 1529 1528 1527 1526 1526 1526 1526 1526 1526 1526 1527 1529 1532 1534 1534 1532 1532 1531 1530 1531 1531 1532 1532 1532 1532 1533 1535 1535 1539 1544 1543 1541 1544 1546 1546 1547 1547 1548 1548 1548 1548
1565 1564 1563 1563 1562 1561 1560 1559 1559 1558 1557 1556 1556 1555 1554 1553 1552 1551 1549 1548 1547 1546 1545 1544 1544 1542 1542 1541 1541 1541 1541 1540 1540 1540 1539 1539 1538 1538 1537 1537 1536 1535 1534 1533 1532 1531 1530 1529 1528 1527 1527 1527 1527 1527 1527 1527 1528 1528 1529 1531 1532 1532 1532 1532 1531 1530 1530 1530 1531 1531 1531 1532 1532 1532 1533 1536 1541 1543 1541 1538 1539 1541 1542 1544 1546 1547 1547 1546
1565 1564 1564 1563 1562 1561 1560 1559 1558 1558 1557 1556 1555 1555 1554 1553 1552 1551 1549 1548 1547 1546 1545 1544 1544 1543 1542 1541 1541 1541 1541 1541 1541 1540 1540 1539 1539 1538 1538 1537 1536 1535 1535 1533 1532 1531 1530 1529 1528 1527 1527 1528 1528 1528 1528 1528 1528 1529 1529 1529 1530 1531 1532 1532 1531 1530 1530 1530 1531 1531 1531 1532 1532 1532 1533 1533 1534 1537 1537 1536 1537 1538 1539 1542 1543 1545 1545 1545
1565 1564 1563 1563 1562 1561 1560 1559 1558 1558 1557 1556 1555 1555 1554 1553 1552 1550 1549 1548 1547 1546 1545 1544 1543 1542 1542 1541 1541 1541 1541 1542 1540 1540 1540 1539 1539 1538 1538 1537 1537 1536 1535 1534 1533 1531 1530 1529 1528 1527 1527 1528 1530 1529 1529 1529 1529 1530 1530 1529 1529 1530 1531 1531 1531 1530 1530 1530 1530 1530 1531 1531 1531 1532 1533 1532 1531 1532 1534 1536 1537 1538 1540 1541 1542 1543 1543 1543
1565 1564 1563 1562 1562 1561 1560 1559 1558 1557 1557 1556 1555 1554 1553 1552 1551 1550 1549 1548 1547 1546 1545 1544 1543 1542 1542 1541 1541 1540 1540 1540 1540 1540 1540 1539 1539 1539 1538 1538 1537 1536 1535 1534 1533 1531 1531 1529 1528 1528 1528 1529 1530 1530 1529 1529 1529 1530 1531 1529 1529 1529 1530 1530 1530 1530 1529 1529 1529 1529 1530 1530 1530 1530 1532 1532 1532 1532 1534 1537 1537 1539 1540 1541 1541 1541 1541 1541
1564 1563 1563 1562 1561 1560 1559 1558 1558 1557 1556 1555 1555 1554 1553 1552 1551 1550 1549 1547 1546 1545 1544 1543 1543 1542 1541 1540 1540 1540 1540 1540 1539 1540 1539 1539 1539 1538 1538 1538 1537 1536 1535 1534 1532 1531 1531 1530 1529 1529 1529 1529 1529 1530 1529 1529 1529 1530 1530 1529 1528 1528 1528 1529 1529 1528 1528 1528 1529 1529 1529 1530 1529 1529 1532 1533 1533 1534 1535 1537 1538 1538 1539 1540 1540 1540 1540 1539
1563 1562 1562 1561 1560 1560 1559 1558 1557 1556 1556 1555 1554 1553 1552 1551 1550 1549 1548 1547 1545 1544 1543 1543 1542 1541 1540 1540 1539 1540 1539 1539 1539 1539 1539 1539 1539 1538 1538 1537 1537 1536 1535 1534 1532 1531 1531 1530 1530 1529 1529 1529 1529 1529 1529 1529 1529 1528 1529 1529 1528 1528 1528 1528 1527 1527 1527 1528 1528 1529 1531 1531 1529 1529 1533 1536 1535 1535 1536 1537 1538 1538 1538 1539 1538 1538 1538 1538
1562 1561 1561 1560 1559 1559 1558 1557 1556 1556 1555 1554 1553 1553 1551 1550 1549 1548 1547 1546 1544 1543 1543 1542 1541 1540 1540 1539 1539 1539 1539 1538 1539 1539 1539 1538 1538 1538 1538 1537 1537 1536 1535 1534 1532 1532 1531 1530 1530 1529 1529 1529 1529 1529 1529 1529 1528 1527 1528 1528 1527 1527 1527 1527 1527 1527 1527 1527 1527 1529 1531 1531 1529 1530 1533 1536 1536 1535 1536 1536 1538 1537 1537 1537 1537 1537 1536 1536
1561 1560 1560 1559 1558 1558 1557 1556 1555 1555 1554 1553 1552 1552 1550 1550 1548 1547 1546 1545 1543 1543 1542 1541 1540 1539 1539 1538 1538 1538 1538 1538 1538 1538 1538 1538 1538 1538 1537 1537 1536 1535 1534 1533 1532 1532 1531 1530 1530 1529 1529 1529 1529 1529 1528 1528 1528 1527 1527 1527 1527 1526 1526 1526 1526 1526 1526 1526 1526 1528 1531 1532 1531 1528 1527 1530 1534 1534 1534 1535 1537 1536 1536 1535 1535 1535 1535 1535
1559 1559 1558 1558 1557 1556 1556 1555 1554 1553 1553 1552 1551 1550 1550 1549 1547 1546 1545 1543 1542 1541 1541 1540 1540 1539 1538 1537 1537 1537 1537 1537 1538 1538 1538 1538 1538 1537 1537 1537 1536 1535 1534 1533 1532 1531 1531 1530 1530 1530 1529 1529 1529 1529 1529 1528 1528 1527 1528 1528 1528 1526 1525 1524 1525 1526 1526 1526 1526 1527 1531 1533 1531 1526 1523 1527 1531 1533 1534 1534 1535 1535 1534 1534 1533 1533 1533 1533
1558 1558 1557 1557 1556 1555 1555 1554 1553 1552 1551 1550 1550 1549 1548 1547 1546 1545 1544 1542 1541 1540 1540 1539 1538 1538 1537 1536 1535 1536 1536 1536 1537 1537 1537 1537 1537 1537 1536 1536 1535 1534 1533 1533 1532 1531 1531 1530 1530 1530 1529 1529 1529 1529 1529 1529 1528 1528 1529 1529 1529 1529 1526 1524 1525 1526 1525 1526 1525 1527 1530 1528 1526 1525 1524 1526 1529 1531 1532 1533 1533 1533 1533 1532 1532 1532 1532 1532
1557 1556 1556 1556 1555 1554 1553 1553 1552 1551 1550 1549 1548 1548 1547 1546 1545 1544 1542 1541 1540 1539 1538 1538 1537 1537 1536 1535 1534 1534 1535 1535 1536 1536 1536 1536 1536 1536 1536 1535 1534 1534 1533 1532 1531 1531 1530 1530 1530 1529 1529 1529 1529 1528 1529 1529 1529 1529 1530 1531 1534 1534 1527 1523 1524 1525 1525 1525 1524 1527 1530 1525 1522 1525 1525 1525 1526 1528 1529 1530 1531 1531 1531 1531 1531 1531 1531 1531
1556 1555 1555 1554 1554 1553 1552 1551 1550 1549 1549 1548 1547 1546 1545 1544 1543 1542 1541 1540 1539 1538 1537 1537 1536 1536 1535 1534 1533 1533 1533 1534 1534 1535 1535 1535 1535 1535 1535 1534 1534 1533 1532 1532 1531 1530 1530 1529 1529 1529 1529 1529 1529 1529 1529 1530 1530 1531 1533 1534 1538 1537 1529 1523 1523 1523 1523 1523 1523 1526 1529 1524 1522 1524 1525 1525 1526 1527 1527 1528 1529 1529 1529 1530 1529 1530 1530 1531
1555 1554 1554 1553 1553 1552 1551 1550 1549 1548 1547 1546 1545 1545 1544 1542 1541 1540 1539 1538 1538 1537 1536 1535 1535 1535 1534 1533 1532 1532 1532 1532 1533 1533 1534 1534 1534 1534 1534 1533 1533 1532 1531 1531 1530 1530 1529 1529 1529 1529 1529 1529 1531 1531 1531 1532 1532 1533 1535 1534 1535 1537 1534 1528 1523 1522 1522 1523 1523 1524 1524 1521 1521 1523 1525 1526 1526 1526 1526 1527 1527 1527 1527 1528 1528 1529 1529 1529
1553 1553 1552 1552 1551 1550 1550 1549 1548 1547 1546 1545 1543 1542 1542 1540 1539 1538 1537 1537 1537 1536 1535 1534 1534 1534 1533 1532 1531 1530 1530 1531 1531 1532 1532 1533 1533 1533 1533 1532 1532 1531 1530 1530 1530 1529 1529 1529 1529 1530 1530 1531 1533 1532 1534 1538 1536 1535 1536 1534 1533 1534 1535 1531 1524 1522 1523 1523 1522 1523 1522 1519 1519 1522 1523 1524 1525 1525 1524 1524 1525 1525 1526 1526 1527 1527 1527 1526
1552 1551 1551 1550 1550 1549 1548 1547 1546 1545 1544 1543 1542 1541 1540 1538 1537 1537 1536 1536 1536 1535 1534 1533 1534 1534 1532 1529 1529 1529 1529 1530 1530 1531 1531 1531 1531 1531 1531 1531 1531 1530 1530 1530 1529 1529 1529 1529 1529 1530 1531 1533 1533 1533 1537 1540 1537 1537 1536 1534 1534 1533 1533 1531 1526 1522 1523 1524 1523 1523 1522 1517 1518 1521 1521 1522 1523 1522 1522 1522 1523 1524 1524 1524 1525 1525 1524 1523
1550 1549 1549 1549 1548 1548 1547 1546 1545 1544 1542 1542 1541 1539 1538 1537 1536 1534 1534 1535 1534 1533 1533 1532 1532 1533 1530 1527 1528 1528 1528 1529 1529 1529 1529 1530 1530 1530 1530 1530 1530 1529 1529 1529 1529 1529 1529 1529 1530 1532 1533 1533 1533 1533 1535 1535 1534 1535 1535 1536 1535 1534 1531 1528 1526 1523 1523 1524 1522 1522 1520 1516 1516 1519 1519 1520 1520 1521 1521 1522 1523 1522 1522 1522 1522 1522 1521 1521
1548 1548 1547 1547 1547 1546 1546 1545 1544 1543 1541 1540 1539 1538 1536 1536 1535 1533 1533 1533 1532 1531 1530 1530 1529 1529 1527 1526 1527 1527 1526 1527 1527 1527 1527 1528 1528 1528 1529 1529 1529 1529 1529 1529 1530 1529 1529 1531 1532 1532 1532 1531 1531 1532 1532 1532 1534 1534 1535 1535 1535 1535 1530 1524 1524 1523 1523 1524 1520 1518 1519 1515 1515 1516 1516 1516 1518 1520 1521 1521 1520 1520 1519 1519 1519 1519 1518 1518
1546 1546 1546 1545 1545 1545 1544 1543 1543 1542 1540 1539 1538 1537 1536 1536 1536 1535 1533 1530 1530 1529 1528 1527 1526 1525 1525 1524 1524 1525 1525 1525 1525 1525 1526 1526 1527 1527 1527 1528 1528 1528 1529 1530 1530 1529 1530 1533 1531 1529 1528 1529 1530 1532 1532 1532 1533 1533 1535 1535 1534 1536 1531 1523 1523 1523 1523 1524 1519 1517 1518 1515 1513 1513 1513 1514 1516 1515 1515 1515 1515 1515 1516 1516 1516 1516 1516 1516
1544 1544 1544 1544 1543 1543 1543 1542 1542 1541 1540 1539 1538 1537 1537 1537 1536 1536 1534 1530 1526 1525 1524 1523 1523 1522 1522 1522 1522 1523 1524 1524 1524 1524 1524 1525 1525 1525 1526 1527 1527 1528 1529 1530 1530 1532 1533 1532 1527 1526 1528 1529 1530 1531 1532 1532 1533 1534 1536 1537 1535 1534 1531 1524 1523 1524 1524 1524 1519 1516 1517 1514 1511 1510 1510 1511 1510 1509 1509 1509 1509 1509 1511 1512 1512 1512 1513 1514
1541 1541 1542 1542 1541 1542 1541 1541 1540 1540 1540 1538 1538 1537 1536 1536 1535 1535 1534 1531 1524 1521 1521 1520 1520 1520 1520 1520 1520 1521 1522 1522 1522 1522 1523 1523 1523 1524 1524 1525 1527 1528 1529 1529 1529 1533 1533 1528 1525 1526 1527 1529 1530 1532 1532 1533 1534 1534 1535 1537 1533 1531 1531 1526 1523 1525 1524 1524 1521 1518 1515 1513 1511 1507 1505 1506 1506 1507 1508 1508 1508 1508 1507 1507 1508 1509 1509 1510
1538 1539 1540 1539 1540 1540 1539 1539 1539 1539 1539 1538 1537 1537 1536 1536 1535 1534 1533 1530 1525 1520 1519 1518 1518 1518 1519 1519 1519 1520 1520 1520 1520 1520 1521 1522 1522 1523 1523 1524 1527 1528 1528 1528 1528 1531 1529 1524 1525 1526 1527 1529 1530 1532 1533 1533 1533 1532 1533 1534 1530 1527 1529 1526 1527 1527 1524 1522 1521 1518 1512 1506 1506 1502 1498 1502 1505 1506 1506 1507 1507 1507 1506 1506 1506 1506 1506 1507
1536 1537 1537 1537 1538 1538 1538 1538 1537 1538 1537 1537 1537 1536 1536 1535 1534 1534 1532 1531 1527 1519 1517 1517 1517 1517 1517 1518 1518 1519 1519 1519 1518 1519 1520 1520 1521 1521 1522 1523 1525 1526 1528 1528 1529 1528 1525 1524 1525 1526 1528 1529 1530 1530 1532 1532 1534 1533 1529 1527 1526 1525 1526 1527 1529 1528 1526 1524 1521 1521 1514 1501 1499 1501 1497 1502 1505 1504 1504 1504 1503 1503 1503 1503 1503 1503 1504 1504
1533 1534 1534 1535 1536 1536 1537 1536 1536 1537 1536 1536 1536 1535 1536 1534 1534 1534 1532 1535 1529 1517 1515 1517 1516 1517 1516 1517 1518 1518 1519 1517 1516 1517 1518 1519 1519 1519 1521 1522 1523 1524 1526 1527 1528 1526 1525 1525 1525 1526 1527 1529 1530 1530 1530 1531 1535 1535 1527 1524 1526 1526 1527 1528 1529 1529 1527 1526 1523 1525 1524 1509 1499 1496 1494 1499 1502 1501 1502 1501 1500 1500 1499 1498 1498 1499 1500 1500
1530 1531 1533 1533 1533 1535 1535 1534 1535 1535 1534 1535 1534 1534 1535 1533 1535 1533 1532 1540 1530 1512 1512 1515 1515 1515 1515 1516 1517 1517 1518 1516 1515 1516 1517 1517 1518 1518 1520 1521 1522 1523 1523 1526 1527 1524 1523 1526 1526 1526 1527 1529 1530 1528 1528 1530 1533 1532 1527 1526 1527 1526 1528 1528 1529 1531 1529 1530 1526 1523 1527 1520 1505 1493 1490 1494 1498 1499 1500 1499 1497 1495 1494 1493 1495 1496 1496 1497
1527 1529 1530 1531 1531 1532 1533 1533 1533 1533 1534 1534 1533 1534 1534 1533 1535 1531 1535 1544 1527 1507 1510 1512 1512 1514 1513 1515 1515 1515 1516 1514 1515 1516 1515 1517 1517 1517 1518 1519 1520 1520 1521 1524 1526 1522 1521 1523 1524 1525 1527 1528 1526 1524 1525 1527 1528 1526 1526 1528 1527 1527 1529 1528 1530 1532 1533 1535 1526 1518 1525 1524 1503 1490 1491 1495 1496 1496 1494 1493 1491 1489 1489 1490 1491 1493 1493 1494
1524 1525 1527 1528 1529 1530 1531 1531 1531 1532 1532 1532 1533 1533 1532 1533 1533 1530 1541 1542 1517 1504 1510 1510 1511 1513 1512 1514 1514 1514 1514 1514 1515 1514 1515 1516 1516 1516 1517 1517 1518 1519 1520 1521 1521 1519 1520 1521 1521 1522 1524 1523 1521 1522 1524 1525 1525 1525 1527 1528 1528 1529 1530 1530 1533 1533 1537 1538 1523 1513 1521 1519 1495 1482 1492 1499 1495 1488 1484 1484 1485 1483 1485 1487 1488 1489 1490 1491
1520 1522 1524 1526 1526 1528 1529 1529 1530 1530 1531 1531 1532 1532 1532 1533 1532 1537 1547 1536 1510 1507 1511 1509 1511 1512 1511 1514 1513 1513 1514 1513 1514 1514 1515 1516 1516 1516 1517 1517 1518 1519 1521 1521 1520 1519 1519 1520 1520 1520 1519 1518 1519 1524 1525 1525 1525 1525 1528 1527 1527 1530 1531 1534 1536 1535 1538 1529 1512 1507 1512 1513 1497 1479 1483 1487 1477 1472 1472 1477 1481 1481 1483 1484 1484 1486 1487 1488
1516 1519 1522 1523 1524 1525 1526 1527 1528 1528 1530 1530 1530 1531 1531 1532 1535 1542 1540 1521 1507 1509 1509 1508 1511 1510 1511 1513 1512 1513 1513 1513 1513 1514 1514 1515 1516 1516 1516 1517 1518 1519 1522 1520 1519 1521 1520 1520 1519 1517 1516 1517 1519 1523 1525 1526 1526 1525 1528 1528 1526 1526 1529 1533 1535 1537 1533 1513 1502 1508 1512 1515 1502 1476 1472 1472 1463 1462 1466 1468 1471 1473 1476 1479 1480 1482 1484 1485
1514 1517 1518 1520 1521 1523 1524 1525 1526 1527 1528 1529 1530 1530 1530 1535 1539 1536 1524 1511 1508 1508 1505 1507 1510 1509 1511 1512 1510 1511 1512 1511 1511 1512 1513 1515 1515 1514 1514 1514 1514 1517 1521 1519 1518 1519 1517 1516 1518 1516 1515 1516 1517 1521 1526 1526 1526 1527 1529 1530 1529 1528 1528 1527 1526 1528 1523 1506 1504 1513 1513 1510 1491 1466 1464 1465 1459 1461 1461 1458 1460 1463 1468 1473 1476 1478 1480 1483
1512 1514 1516 1517 1519 1520 1522 1523 1524 1526 1526 1527 1529 1528 1531 1538 1534 1524 1516 1509 1504 1503 1503 1505 1507 1509 1511 1510 1509 1510 1511 1510 1510 1510 1512 1514 1515 1513 1513 1513 1512 1513 1517 1521 1522 1518 1514 1513 1517 1515 1513 1513 1513 1516 1520 1521 1525 1528 1526 1525 1526 1530 1530 1524 1520 1519 1513 1502 1505 1515 1511 1499 1478 1460 1459 1456 1453 1457 1457 1455 1456 1458 1463 1467 1471 1475 1477 1479
1510 1511 1513 1514 1516 1518 1520 1522 1523 1523 1525 1526 1527 1529 1535 1536 1524 1516 1514 1507 1502 1503 1504 1505 1507 1509 1509 1509 1508 1508 1508 1508 1508 1510 1511 1513 1515 1513 1510 1512 1512 1511 1515 1522 1522 1520 1516 1510 1508 1509 1508 1509 1510 1511 1511 1515 1522 1526 1524 1523 1522 1523 1524 1520 1514 1509 1503 1500 1506 1515 1507 1484 1464 1456 1457 1455 1454 1455 1454 1454 1455 1457 1462 1466 1469 1473 1474 1476
1507 1508 1510 1511 1513 1515 1518 1520 1520 1522 1524 1524 1525 1528 1530 1525 1517 1513 1509 1503 1502 1504 1504 1506 1507 1509 1510 1509 1508 1506 1504 1505 1508 1510 1510 1511 1512 1509 1506 1506 1509 1510 1514 1518 1516 1519 1519 1508 1503 1508 1507 1508 1509 1510 1512 1513 1518 1524 1526 1524 1520 1515 1514 1514 1513 1511 1512 1511 1508 1505 1491 1467 1456 1455 1456 1457 1455 1454 1453 1453 1455 1458 1461 1465 1467 1469 1471 1472
1505 1506 1507 1507 1509 1513 1516 1517 1518 1521 1521 1522 1526 1524 1515 1508 1507 1505 1500 1496 1498 1499 1503 1507 1507 1508 1510 1508 1507 1505 1503 1505 1508 1509 1510 1511 1510 1507 1504 1501 1502 1504 1505 1509 1510 1511 1512 1506 1506 1510 1508 1510 1511 1509 1512 1510 1511 1521 1524 1518 1515 1516 1512 1511 1516 1520 1524 1517 1497 1486 1475 1459 1454 1451 1452 1457 1455 1454 1457 1454 1454 1457 1459 1462 1464 1465 1468 1470
1502 1503 1504 1504 1507 1511 1513 1514 1517 1518 1519 1521 1520 1512 1503 1499 1497 1496 1494 1492 1493 1495 1499 1504 1503 1503 1505 1504 1503 1503 1503 1505 1508 1507 1508 1510 1504 1500 1501 1497 1497 1497 1495 1498 1502 1503 1505 1502 1505 1509 1506 1509 1512 1510 1512 1511 1510 1517 1518 1511 1512 1517 1515 1515 1519 1520 1523 1516 1492 1479 1471 1457 1451 1449 1451 1459 1457 1454 1457 1455 1456 1458 1458 1460 1461 1462 1466 1467
1500 1501 1500 1499 1504 1508 1509 1512 1515 1515 1518 1519 1513 1503 1498 1495 1491 1490 1490 1490 1491 1492 1495 1498 1496 1495 1499 1500 1499 1501 1503 1503 1505 1506 1505 1505 1497 1491 1494 1493 1492 1493 1492 1494 1497 1501 1505 1501 1504 1513 1511 1510 1513 1511 1510 1512 1512 1512 1512 1512 1512 1512 1513 1517 1522 1516 1515 1513 1490 1474 1468 1451 1442 1443 1445 1452 1454 1451 1454 1456 1456 1456 1456 1457 1458 1461 1464 1465
1499 1500 1497 1494 1500 1505 1506 1510 1511 1513 1516 1513 1507 1502 1496 1491 1489 1488 1488 1488 1490 1491 1492 1492 1490 1491 1494 1495 1494 1498 1501 1499 1502 1504 1499 1499 1495 1487 1487 1487 1488 1492 1492 1494 1496 1499 1504 1502 1502 1512 1515 1512 1512 1512 1507 1508 1513 1514 1513 1514 1512 1511 1510 1511 1514 1508 1506 1507 1489 1475 1467 1442 1427 1430 1430 1438 1446 1445 1450 1454 1453 1452 1451 1453 1456 1458 1460 1462
1498 1499 1493 1490 1496 1500 1503 1507 1508 1511 1510 1502 1498 1497 1492 1488 1487 1485 1486 1487 1487 1487 1488 1488 1488 1489 1490 1492 1492 1492 1496 1497 1499 1500 1495 1493 1490 1484 1484 1483 1485 1491 1492 1494 1496 1498 1503 1504 1501 1510 1519 1513 1505 1502 1498 1497 1505 1511 1513 1513 1511 1511 1510 1508 1507 1501 1500 1504 1495 1488 1473 1434 1418 1424 1422 1427 1437 1437 1443 1447 1446 1447 1448 1450 1453 1454 1456 1459
1497 1495 1489 1488 1494 1495 1499 1504 1503 1503 1501 1494 1491 1492 1489 1486 1483 1483 1484 1485 1484 1483 1484 1484 1485 1486 1486 1488 1489 1487 1491 1495 1495 1495 1492 1488 1484 1480 1479 1478 1480 1487 1492 1495 1496 1495 1499 1501 1500 1505 1511 1504 1493 1492 1493 1491 1493 1497 1500 1501 1500 1502 1506 1507 1503 1496 1497 1496 1487 1488 1469 1422 1411 1426 1422 1424 1432 1432 1437 1441 1440 1443 1445 1447 1450 1451 1454 1456
1493 1490 1485 1488 1491 1491 1496 1499 1496 1495 1493 1488 1486 1486 1484 1482 1480 1481 1481 1482 1482 1481 1482 1482 1481 1482 1482 1481 1482 1484 1487 1490 1491 1491 1486 1480 1477 1474 1473 1474 1476 1479 1484 1490 1492 1490 1493 1497 1497 1495 1493 1493 1492 1493 1494 1493 1491 1492 1492 1490 1492 1495 1498 1498 1493 1489 1496 1490 1481 1491 1472 1419 1410 1427 1424 1423 1428 1428 1433 1435 1435 1440 1441 1443 1446 1448 1451 1453
1486 1485 1484 1486 1487 1489 1494 1494 1491 1491 1487 1482 1481 1481 1480 1479 1478 1478 1478 1479 1480 1479 1479 1478 1476 1478 1478 1476 1478 1481 1482 1482 1483 1483 1479 1474 1473 1471 1470 1472 1474 1476 1480 1485 1487 1488 1491 1493 1494 1489 1483 1487 1494 1496 1495 1494 1494 1493 1489 1488 1488 1485 1482 1482 1482 1484 1489 1482 1482 1495 1472 1422 1413 1427 1424 1425 1427 1426 1430 1431 1432 1437 1438 1440 1444 1444 1447 1449
1482 1483 1484 1485 1486 1487 1486 1483 1482 1484 1481 1480 1481 1479 1478 1477 1474 1473 1474 1473 1473 1473 1473 1472 1471 1471 1472 1472 1474 1476 1478 1478 1475 1472 1471 1470 1469 1468 1468 1469 1471 1473 1474 1475 1477 1482 1486 1487 1490 1492 1490 1486 1487 1491 1492 1493 1494 1490 1483 1483 1482 1477 1478 1481 1483 1489 1485 1471 1476 1484 1455 1418 1419 1429 1425 1425 1428 1426 1429 1430 1430 1434 1435 1436 1440 1441 1443 1445
1481 1482 1481 1481 1483 1482 1478 1472 1472 1476 1477 1479 1479 1477 1476 1473 1465 1465 1467 1467 1466 1468 1468 1467 1466 1466 1468 1471 1472 1472 1472 1470 1467 1466 1465 1466 1467 1466 1467 1468 1467 1468 1468 1469 1470 1473 1477 1480 1481 1487 1491 1484 1473 1470 1472 1476 1484 1485 1480 1479 1477 1476 1479 1478 1480 1486 1476 1464 1470 1468 1440 1417 1420 1429 1426 1425 1428 1427 1427 1429 1430 1430 1432 1433 1436 1438 1439 1441
1476 1475 1474 1476 1479 1477 1471 1468 1471 1472 1471 1476 1479 1474 1470 1465 1458 1457 1462 1463 1463 1464 1464 1462 1463 1464 1466 1468 1469 1469 1467 1465 1463 1462 1462 1464 1464 1464 1466 1466 1465 1467 1467 1468 1469 1470 1474 1476 1472 1470 1473 1468 1456 1452 1457 1464 1470 1472 1470 1471 1472 1472 1474 1475 1477 1471 1462 1465 1463 1443 1428 1420 1414 1419 1426 1424 1425 1426 1424 1427 1428 1428 1429 1430 1432 1434 1435 1437
1465 1461 1459 1465 1470 1470 1467 1466 1469 1467 1466 1470 1469 1460 1456 1456 1456 1456 1457 1456 1457 1460 1461 1460 1460 1461 1461 1462 1466 1465 1461 1460 1460 1460 1461 1461 1461 1464 1466 1465 1465 1466 1466 1468 1468 1469 1472 1470 1465 1465 1462 1454 1447 1448 1456 1460 1458 1456 1456 1457 1463 1469 1471 1473 1467 1451 1452 1468 1451 1419 1421 1425 1407 1407 1419 1419 1420 1422 1420 1422 1422 1422 1425 1426 1428 1431 1432 1434
1451 1445 1444 1448 1451 1452 1453 1452 1454 1458 1460 1460 1455 1449 1448 1449 1451 1451 1450 1451 1453 1455 1457 1456 1452 1450 1451 1455 1460 1459 1455 1456 1458 1458 1459 1458 1458 1462 1464 1464 1465 1464 1465 1468 1467 1467 1470 1462 1457 1463 1461 1452 1448 1450 1455 1457 1455 1453 1448 1444 1452 1464 1466 1461 1453 1443 1448 1455 1432 1407 1415 1417 1399 1399 1409 1410 1412 1415 1413 1415 1416 1417 1421 1423 1425 1428 1429 1430
1441 1438 1440 1442 1439 1437 1436 1436 1442 1450 1452 1453 1452 1445 1438 1438 1441 1442 1443 1448 1449 1446 1447 1446 1440 1440 1445 1449 1451 1450 1446 1447 1451 1452 1451 1450 1451 1454 1457 1459 1461 1463 1464 1466 1465 1467 1466 1457 1454 1459 1458 1452 1450 1452 1456 1457 1456 1454 1442 1433 1443 1454 1453 1449 1445 1440 1441 1438 1421 1411 1413 1404 1389 1391 1400 1402 1405 1407 1408 1411 1413 1415 1418 1420 1422 1423 1424 1426
1430 1429 1433 1437 1436 1433 1434 1437 1442 1445 1444 1449 1447 1433 1426 1430 1433 1434 1435 1437 1437 1436 1437 1435 1429 1431 1439 1442 1442 1436 1428 1431 1438 1438 1439 1443 1445 1448 1450 1448 1452 1461 1465 1463 1465 1467 1463 1457 1455 1458 1458 1452 1446 1450 1456 1456 1456 1453 1435 1424 1436 1445 1442 1442 1439 1433 1435 1432 1418 1415 1418 1402 1381 1382 1393 1399 1400 1403 1406 1408 1410 1412 1414 1415 1417 1419 1420 1422
1420 1423 1427 1432 1431 1430 1432 1434 1437 1440 1439 1439 1432 1420 1421 1425 1421 1424 1429 1425 1421 1423 1425 1424 1423 1428 1435 1436 1432 1422 1417 1423 1428 1425 1427 1433 1435 1436 1438 1436 1441 1453 1461 1462 1461 1461 1462 1460 1457 1461 1462 1450 1443 1452 1457 1456 1462 1457 1431 1418 1432 1439 1431 1428 1426 1422 1422 1420 1414 1419 1419 1396 1375 1379 1391 1394 1395 1399 1402 1403 1406 1408 1409 1411 1412 1415 1417 1419
1417 1421 1422 1425 1423 1422 1425 1426 1430 1433 1425 1418 1415 1414 1417 1415 1413 1421 1427 1420 1414 1417 1419 1419 1421 1428 1431 1427 1417 1410 1412 1419 1422 1422 1425 1429 1428 1428 1430 1431 1433 1438 1449 1457 1457 1455 1457 1456 1455 1462 1460 1447 1449 1460 1460 1462 1464 1443 1411 1403 1415 1422 1418 1416 1415 1410 1406 1408 1412 1413 1398 1377 1374 1383 1389 1389 1393 1395 1395 1396 1399 1402 1404 1407 1408 1411 1414 1415